This demonstration page uses our WeatherBlox Daily Observations layout. Learn more.

Left ArrowRight Arrow

39.01783, -85.05884

Hourly Observations for November 3, 2018

Temp ( °F °C ) Dew Point ( °F °C ) Humidity (%) Winds ( mph kmh ) Pressure ( in mb ) Visibility ( mi km ) Precip ( " mm )
12:52 am 00:52 Cloudy with Light Rain 42 5.6 39 3.9 89 89 W 8 13 29.90 1012 10 16 0.01 0.25
1:52 am 01:52 Mostly Cloudy 41 5 41 5 100 100 WSW 6 9 29.91 1013 10 16 0.00 0.03
2:52 am 02:52 Clear 40 4.4 39 3.9 97 97 WSW 6 9 29.93 1013 10 16 0.00 0.00
3:52 am 03:52 Clear 39 3.9 38 3.3 96 96 WSW 6 9 29.94 1014 10 16 0.00 0.00
4:52 am 04:52 Clear 38 3.3 37 2.8 97 97 W 5 7 29.97 1015 10 16 0.00 0.00
5:52 am 05:52 Clear 37 2.8 36 2.2 96 96 Calm 30.00 1016 8 13 0.00 0.00
6:52 am 06:52 Clear 36 2.2 35 1.7 97 97 Calm 30.04 1017 7 11 0.00 0.00
7:52 am 07:52 Clear 34 1.1 34 1.1 100 100 Calm 30.05 1018 7 11 0.00 0.00
8:52 am 08:52 Sunny with Mist and Fog 33 0.6 33 0.6 100 100 Calm 30.09 1019 5 8 0.00 0.00
9:52 am 09:52 Partly Cloudy with Mist and Fog 40 4.4 39 3.9 97 97 SSW 3 6 30.13 1020 5 8 0.00 0.00
10:52 am 10:52 Partly Cloudy 45 7.2 39 3.9 80 80 WSW 3 6 30.16 1021 10 16 0.00 0.00
11:52 am 11:52 Partly Cloudy 48 8.9 38 3.3 68 68 SSW 6 9 30.18 1022 10 16 0.00 0.00
12:52 pm 12:52 Partly Cloudy 51 10.6 38 3.3 61 61 WSW 5 7 30.20 1023 10 16 0.00 0.00
1:52 pm 13:52 Partly Cloudy 53 11.7 38 3.3 57 57 WNW 5 7 30.19 1023 10 16 0.00 0.00
2:52 pm 14:52 Partly Cloudy 55 12.8 40 4.4 57 57 Calm 30.19 1022 10 16 0.00 0.00
3:52 pm 15:52 Partly Cloudy 55 12.8 37 2.8 51 51 VRB 3 6 30.18 1022 10 16 0.00 0.00
4:52 pm 16:52 Partly Cloudy 54 12.2 38 3.3 55 55 ESE 3 6 30.19 1023 10 16 0.00 0.00
5:52 pm 17:52 Partly Cloudy 53 11.7 39 3.9 59 59 ESE 3 6 30.21 1023 10 16 0.00 0.00
6:52 pm 18:52 Partly Cloudy 48 8.9 39 3.9 71 71 E 7 11 30.22 1023 10 16 0.00 0.00
7:52 pm 19:52 Partly Cloudy 48 8.9 38 3.3 68 68 E 7 11 30.25 1024 10 16 0.00 0.00
8:52 pm 20:52 Partly Cloudy 47 8.3 38 3.3 71 71 ESE 8 13 30.26 1025 10 16 0.00 0.00
9:52 pm 21:52 Mostly Cloudy 47 8.3 38 3.3 71 71 SE 12 19 30.26 1025 10 16 0.00 0.00
10:52 pm 22:52 Clear 46 7.8 38 3.3 73 73 SE 10 17 30.28 1025 10 16 0.00 0.00
11:52 pm 23:52 Mostly Cloudy 46 7.8 38 3.3 73 73 SE 9 15 30.29 1026 10 16 0.00 0.00

Powered by AerisWeather